Weather History for KPAH - November, 2014

Change the Weather History Date:

Sunday, November 2, 2014

  Actual Average Record
Temperature  
Mean Temperature 40 °F 54 °F  
Max Temperature 57 °F 65 °F 83 °F (1987)
Min Temperature 23 °F 42 °F 18 °F (1951)
Degree Days  
Heating Degree Days 25 12  
Month to date heating degree days 50 24  
Since 1 July heating degree days 275 291  
Cooling Degree Days 0 0  
Month to date cooling degree days 0 0  
Year to date cooling degree days 1722 1538  
Moisture  
Dew Point 26 °F    
Average Humidity 63    
Maximum Humidity 100    
Minimum Humidity 26    
Precipitation  
Precipitation T in 0.13 in 1.88 in (1955)
Month to date precipitation T 0.25  
Year to date precipitation 41.36 40.44  
Snow  
Snow 0.00 in 0.00 in T in (1966)
Month to date snowfall 0.0 0.0  
Since 1 July snowfall 0.0 0.1  
Since 1 September snowfall 0.0 0.1  
Snow Depth 0.00 in    
Sea Level Pressure  
Sea Level Pressure 30.41 in    
Wind  
Wind Speed 4 mph (SSE)    
Max Wind Speed 12 mph    
Max Gust Speed 14 mph    
Visibility 10 miles    
Events      
T = Trace of Precipitation, MM = Missing Value Source: NWS Daily Summary

Daily Weather History Graph

Daily Weather History Graph

Search for Another Location

Airport or City:

Trip Planner

Search our weather history database for the weather conditions in past years. The results will help you decide how hot, cold, wet, or windy it might be!

Date:

Astronomy

Nov. 02, 2014 Rise Set
Actual Time 6:20 AM CST 4:56 PM CST
Civil Twilight 5:53 AM CST 5:23 PM CST
Nautical Twilight 5:22 AM CST 5:54 PM CST
Astronomical Twilight 4:52 AM CST 6:24 PM CST
Moon 2:22 PM CST (11/2) 1:29 AM CST (11/2)
Length of Visible Light 11h 30m
Length of Day
10h 36m
Waxing Gibbous, 79% of the Moon is Illuminated
Nov 2
Waxing Gibbous
Nov 6
Full
Nov 14
Last Quarter
Nov 22
New
Nov 29
First Quarter

Hourly Weather History & Observations

Time (CST) Temp. Windchill Dew Point Humidity Pressure Visibility Wind Dir Wind Speed Gust Speed Precip Events Conditions
12:53 AM 28.9 °F - 26.1 °F 89% 30.40 in 10.0 mi Calm Calm - N/A   Clear
1:53 AM 27.0 °F - 25.0 °F 92% 30.41 in 10.0 mi Calm Calm - N/A   Clear
1:53 AM 27.0 °F - 25.0 °F 92% 30.42 in 10.0 mi Calm Calm - N/A   Clear
2:53 AM 26.1 °F 21.9 °F 24.1 °F 92% 30.43 in 10.0 mi WSW 3.5 mph - N/A   Clear
3:53 AM 24.1 °F - 23.0 °F 96% 30.44 in 10.0 mi Calm Calm - N/A   Clear
4:53 AM 26.1 °F - 23.0 °F 88% 30.45 in 10.0 mi Calm Calm - N/A   Clear
5:46 AM 25.0 °F - 23.0 °F 92% 30.44 in 10.0 mi Calm Calm - N/A   Partly Cloudy
5:53 AM 25.0 °F - 24.1 °F 96% 30.45 in 10.0 mi Calm Calm - N/A   Scattered Clouds
6:53 AM 26.1 °F - 24.1 °F 92% 30.47 in 10.0 mi Calm Calm - N/A   Clear
7:53 AM 34.0 °F - 30.9 °F 89% 30.50 in 10.0 mi Calm Calm - N/A   Clear
8:53 AM 42.1 °F 38.4 °F 32.0 °F 67% 30.50 in 10.0 mi SE 5.8 mph - N/A   Clear
9:53 AM 46.0 °F 41.9 °F 28.0 °F 50% 30.50 in 10.0 mi SE 8.1 mph - N/A   Clear
10:53 AM 50.0 °F - 27.0 °F 41% 30.47 in 10.0 mi ESE 9.2 mph - N/A   Clear
11:53 AM 53.1 °F - 26.1 °F 35% 30.45 in 10.0 mi Variable 5.8 mph - N/A   Clear
12:53 PM 55.0 °F - 24.1 °F 30% 30.42 in 10.0 mi SSE 6.9 mph - N/A   Mostly Cloudy
1:53 PM 57.0 °F - 24.1 °F 28% 30.39 in 10.0 mi SSE 8.1 mph - N/A   Scattered Clouds
2:53 PM 55.0 °F - 21.9 °F 28% 30.37 in 10.0 mi South 6.9 mph - N/A   Scattered Clouds
3:53 PM 55.0 °F - 23.0 °F 29% 30.36 in 10.0 mi SSE 8.1 mph - N/A   Mostly Cloudy
4:53 PM 53.1 °F - 26.1 °F 35% 30.36 in 10.0 mi Calm Calm - 0.00 in   Overcast
5:53 PM 48.9 °F - 27.0 °F 43% 30.36 in 10.0 mi South 3.5 mph - N/A   Mostly Cloudy
6:53 PM 50.0 °F - 25.0 °F 38% 30.35 in 10.0 mi Calm Calm - N/A   Scattered Clouds
7:53 PM 43.0 °F 39.5 °F 28.9 °F 58% 30.34 in 10.0 mi SSE 5.8 mph - N/A   Clear
8:53 PM 42.1 °F 39.2 °F 28.0 °F 58% 30.33 in 10.0 mi SSE 4.6 mph - N/A   Clear
9:53 PM 43.0 °F 41.3 °F 26.1 °F 51% 30.33 in 10.0 mi South 3.5 mph - N/A   Clear
10:53 PM 44.1 °F 42.5 °F 26.1 °F 49% 30.32 in 10.0 mi South 3.5 mph - N/A   Clear